Find Starlink 36751

NORAD ID: 67729 Int'l Des: 2026-026 Owner: SPXS Country: US Constellation: starlink operational
LEOCIRCULARRETROGRADE

Live Position

Loading 3D Globe...

About Starlink 36751

Description loading...

Upcoming Passes

Passes for default location (London). Set your location on the main map for personalized predictions.

Altitude History

Loading altitude history...

Two-Line Element Set

1 67729U 26026J 26112.13462951 .00016623 00000-0 51614-3 0 9998
2 67729 97.2838 166.1189 0001377 81.0136 279.1262 15.33441699 10789
Epoch: Apr 22, 2026 • Age: 14 hours

Current Status

Altitude 490.0 km
Velocity 7.62 km/s
Sub-Earth Point -61.78°S, 73.81°E
Launch Date Feb 11, 2026
Age 0.1 years
Type internet

Technical Details

Classification Payload
Mass 575.00 kg
Dry Mass 530.00 kg
Total Mass 575.00 kg
Length 0.30 m
Diameter 4.10 m
Span 29.00 m
Shape Box + pan
Manufacturer SPXS
Bus Type Starlink V2MO
Phase Status In Orbit
Owner/State SPXS/US

Most Searched